STARLINK-1444 (45661 NORAD) Tracking and Keplerian Element Data

This shows tracking and keplerian element data for the satellite.

Feedback or suggestion? Click here.




ElementValue
Catalog45661
NameSTARLINK-1444
Epoch Orbit1058
Epoch Day218.91667824
Epoch Year2020
RAAN232.4813
Inclination53.0009
Eccentricity0.0001527
Argument of Perigee74.0959
Mean Anonmoly242.433
Mean Motion15.05555003
Decay Rate0.00044019
L11 45661U 20035E 20218.91667824 .00044019 00000-0 30235-2 0 9991
L22 45661 53.0009 232.4813 0001527 74.0959 242.4330 15.05555003 10584

Live tracking and technical data element details for STARLINK-1444 (NORAD 45661). STARLINK-1444 can be tracked NOW for your location showing map with azimuth and elevation plus other details from your city location.

Track the satellite on the map from your city or location and see movement details for azimuth, elevation, latitude, longitude, range, height, and movement on the map or in text.







IsCatalogInMostPopularTable: catalog: 45661, numindb: 10
Update: records affected: 1



GetName: 45661 STARLINK-1444

Hit Count: updated at: Fri, 07 Aug 2020 23:34:27 GMT